Voltar ao catálogo

STARLINK-5845

AtivoComunicaçõesVLEO
NORAD 57050·PAYLOAD·🇺🇸 United States

Lançado Jun 22, 2023 de Vandenberg Space Force Base

Loading…

Próximas Passagens (próximas 24 horas)

TLE

AtualizadoSource: CelesTrak SupGP

Época: Sep 15, 2026, 02:52 UTC

1 57050C 23088C   26258.11993056  .00045223  00000+0  16377-2 0  2584
2 57050  43.0005 120.7445 0001241 242.4971 150.9077 15.27561787    10

Acompanhe STARLINK-5845 em tempo real com AllMySat

Download on the App Store